Location: NJAA Observatory
(40.6819°N, 74.8979°W)
Time: 03:07:59
(UTC-04:00)

Cosmos 1328 Rocket - Visible Passes

Search period start: 27 April 2015 00:00
Search period end: 07 May 2015 00:00
Orbit: 604 x 627 km, 82.5° (Epoch: 26 April)

Date Brightness Start Highest point End Pass type
(mag) Time Alt. Az. Time Alt. Az. Time Alt. Az.
27 Apr 4.1 03:37:26 10° N 03:41:50 56° E 03:43:38 32° SE visible
27 Apr 5.5 05:17:18 10° WNW 05:19:10 12° W 05:20:40 10° WSW visible
28 Apr 3.4 03:53:35 10° N 03:58:02 79° W 03:59:10 49° S visible
29 Apr 6.0 02:33:17 10° NNE 02:36:05 17° ENE 02:37:44 14° E visible
29 Apr 4.0 04:09:58 10° NNW 04:14:10 41° W 04:14:47 39° WSW visible
30 Apr 5.2 02:48:42 10° NNE 02:52:33 29° ENE 02:53:24 27° E visible
30 Apr 4.8 04:26:42 10° NW 04:30:15 23° W 04:30:26 23° W visible
01 May 4.1 03:04:32 10° N 03:08:53 52° E 03:09:07 52° E visible
01 May 5.5 04:44:10 10° WNW 04:46:10 13° W 04:46:10 13° W visible
02 May 3.5 03:20:39 10° N 03:24:52 78° NW 03:24:52 78° NW visible
03 May 6.0 02:00:28 10° NNE 02:03:06 16° ENE 02:03:35 16° ENE visible
03 May 4.1 03:37:01 10° NNW 03:40:39 41° WNW 03:40:39 41° WNW visible
04 May 5.3 02:15:49 10° NNE 02:19:25 27° ENE 02:19:25 27° ENE visible
04 May 5.0 03:53:42 10° NW 03:56:29 23° WNW 03:56:29 23° WNW visible
05 May 4.5 02:31:37 10° N 02:35:16 45° NE 02:35:16 45° NE visible
05 May 5.6 04:11:02 10° NW 04:12:19 13° WNW 04:12:19 13° WNW visible
06 May 4.1 02:47:42 10° N 02:51:08 53° N 02:51:08 53° N visible
